EST,Max TemperatureF,Mean TemperatureF,Min TemperatureF,Max Dew PointF,MeanDew PointF,Min DewpointF,Max Humidity, Mean Humidity, Min Humidity, Max Sea Level PressureIn, Mean Sea Level PressureIn, Min Sea Level PressureIn, Max VisibilityMiles, Mean VisibilityMiles, Min VisibilityMiles, Max Wind SpeedMPH, Mean Wind SpeedMPH, Max Gust SpeedMPH,PrecipitationIn, CloudCover, Events, WindDirDegrees
2012-11-1,37,35,33,37,35,32,100,98,81,29.82,29.77,29.73,10,8,3,14,10,18,0.00,7,Rain,219
2012-11-2,44,40,37,32,29,28,81,68,53,30.02,29.88,29.78,10,10,10,15,7,26,0.00,5,,275
2012-11-3,37,35,33,32,30,28,93,79,75,30.14,30.09,30.02,10,10,10,13,5,16,0.00,7,,292
2012-11-4,44,38,32,34,30,27,100,79,57,30.10,30.08,30.05,10,10,7,9,2,,0.00,5,,354
2012-11-5,39,34,30,32,29,27,100,82,65,30.15,30.12,30.09,10,10,10,7,1,,0.00,5,,19
2012-11-6,51,38,26,28,27,25,100,68,35,30.10,30.00,29.91,10,10,5,6,2,,0.00,0,,53
2012-11-7,41,36,32,32,29,27,93,79,61,30.02,29.93,29.87,10,10,5,9,2,,0.00,0,,5
2012-11-8,42,34,26,30,26,19,100,76,45,30.18,30.13,30.02,10,9,2,9,2,,0.00,0,,273
2012-11-9,53,42,30,32,30,27,93,69,44,30.29,30.23,30.18,10,10,4,8,1,,0.00,0,,217
2012-11-10,69,52,35,36,31,28,81,49,25,30.32,30.27,30.22,10,10,10,14,3,20,0.00,0,,182
2012-11-11,75,58,42,37,33,25,70,45,18,30.41,30.32,30.27,10,10,7,16,3,23,0.00,0,,171
2012-11-12,69,53,37,54,45,36,100,64,43,30.35,30.21,30.06,10,8,2,29,11,39,0.38,3,Rain,198
2012-11-13,37,34,32,36,27,23,93,76,60,30.49,30.43,30.35,10,10,10,10,6,16,0.00,3,,314
2012-11-14,41,34,28,27,26,23,93,70,57,30.48,30.43,30.37,10,10,8,8,3,,0.00,0,,19
2012-11-15,48,38,28,30,29,28,100,67,46,30.33,30.29,30.26,10,10,8,6,1,,0.00,0,,347
2012-11-16,46,37,28,32,28,27,100,74,46,30.46,30.37,30.30,10,10,8,8,1,,0.00,0,,3
2012-11-17,55,42,28,28,24,19,93,56,28,30.54,30.49,30.45,10,10,10,10,3,,0.00,0,,46
2012-11-18,60,48,35,30,26,19,56,45,29,30.49,30.45,30.39,10,10,10,9,5,,0.00,0,,63
2012-11-19,55,44,32,32,28,23,81,57,36,30.41,30.31,30.19,10,10,10,7,1,,0.00,0,,23
2012-11-20,53,43,33,34,32,30,93,65,44,30.19,30.14,30.09,10,10,10,4,0,,0.00,0,,313
2012-11-21,55,44,32,34,29,21,100,63,26,30.23,30.19,30.13,10,10,10,6,0,,0.00,0,,10
2012-11-22,60,46,32,30,26,23,80,53,25,30.26,30.19,30.08,10,10,9,6,1,,0.00,0,,117
2012-11-23,55,44,30,46,34,19,100,67,47,30.08,29.98,29.88,10,9,1,20,7,28,0.04,4,Rain,240
2012-11-24,32,30,28,27,22,18,93,75,60,30.11,30.08,30.04,10,8,2,15,9,20,0.37,7,Snow,255
2012-11-25,42,35,28,21,18,12,74,53,29,30.08,30.00,29.90,10,10,10,17,8,23,0.00,2,,223
2012-11-26,50,42,33,32,23,18,66,47,34,30.18,30.13,30.02,10,10,10,9,4,,0.00,1,,233
2012-11-27,42,37,32,39,34,32,100,97,66,30.27,30.21,30.14,10,5,0,7,2,,0.29,7,Rain-Snow,360
2012-11-28,37,34,30,34,28,23,100,81,60,30.38,30.32,30.25,10,9,3,15,5,20,0.00,4,,237
2012-11-29,46,36,26,28,23,19,93,66,34,30.43,30.35,30.28,10,10,6,9,2,,0.00,0,,200
2012-11-30,53,42,30,34,28,19,81,58,41,30.33,30.28,30.22,10,10,10,15,2,20,0.00,0,,206